This demonstration page uses our WeatherBlox Daily Observations layout. Learn more.

Hourly Observations for August 9, 2020

Temp ( °F °C ) Dew Point ( °F °C ) Humidity (%) Winds ( mph kmh ) Pressure ( in mb ) Visibility ( mi km ) Precip ( " mm )
12:15 am 00:15 Clear with Nearby Thunderstorms 78 25.6 68 20 71 71 SE 6 9 29.8 1009 10 16.0934 0 0
12:35 am 00:35 Clear 77 25.1 68 20.1 74 74 SE 5 7 29.81 1009 10 16.0934 0 0
12:55 am 00:55 Clear 76 24.5 69 20.3 78 78 NW 6 9 29.83 1010 10 16.0934 0 0
1:15 am 01:15 Partly Cloudy 78 25.5 68 19.9 71 71 N 5 7 29.83 1010 10 16.0934 0 0
1:35 am 01:35 Partly Cloudy 76 24.6 69 20.5 78 78 N 9 15 29.83 1010 10 16.0934 0 0
1:55 am 01:55 Partly Cloudy 75 24 69 20.7 82 82 NE 9 15 29.81 1010 10 16.0934 0 0
2:15 am 02:15 Clear 75 24 70 21 83 83 ENE 7 11 29.81 1010 10 16.0934 0 0
2:35 am 02:35 Clear 74 23.6 70 21 85 85 ENE 9 15 29.8 1009 10 16.0934 0 0
2:55 am 02:55 Clear 74 23.6 70 21.2 86 86 E 10 17 29.8 1009 10 16.0934 0 0
3:15 am 03:15 Clear 74 23.5 70 21.3 88 88 E 8 13 29.79 1009 10 16.0934 0 0
3:35 am 03:35 Clear 73 23 70 21.1 89 89 E 8 13 29.79 1009 10 16.0934 0 0
3:55 am 03:55 Clear 73 22.5 70 21 91 91 ESE 8 13 29.78 1008 10 16.0934 0 0
4:15 am 04:15 Clear 72 22 69 20.8 93 93 ESE 6 9 29.77 1008 10 16.0934 0 0
4:35 am 04:35 Clear 71 21.7 69 20.7 94 94 E 3 6 29.77 1008 10 16.0934 0 0
4:55 am 04:55 Clear 71 21.5 69 20.6 95 95 E 5 7 29.78 1008 10 16.0934 0 0
5:15 am 05:15 Clear 70 21 68 20.1 95 95 Calm 29.78 1008 10 16.0934 0 0
5:35 am 05:35 Clear 69 20.5 67 19.6 95 95 Calm 29.79 1009 7 11.26538 0 0
5:55 am 05:55 Clear 69 20.4 67 19.7 96 96 ENE 5 7 29.8 1009 7 11.26538 0 0
6:15 am 06:15 Clear 70 21.2 69 20.4 95 95 E 6 9 29.81 1009 10 16.0934 0 0
6:35 am 06:35 Clear 69 20.6 67 19.6 94 94 Calm 29.81 1010 10 16.0934 0 0
6:55 am 06:55 Sunny with Mist and Fog 68 20 67 19.2 95 95 N 5 7 29.83 1010 5 8.0467 0 0
7:15 am 07:15 Sunny with Mist and Fog 68 19.8 67 19.2 96 96 NNW 3 6 29.84 1010 3 4.82802 0 0
7:35 am 07:35 Sunny with Mist and Fog 68 19.8 67 19.2 96 96 Calm 29.85 1011 3 4.82802 0 0
7:55 am 07:55 Sunny with Mist and Fog 69 20.5 68 19.9 96 96 N 3 6 29.84 1011 4 6.43736 0 0
8:15 am 08:15 Sunny 70 21.1 69 20.4 96 96 N 3 6 29.85 1011 7 11.26538 0 0
8:35 am 08:35 Partly Cloudy with Mist and Fog 70 21.2 69 20.3 95 95 NNE 9 15 29.85 1011 4 6.43736 0 0
8:55 am 08:55 Cloudy with Mist and Fog 71 21.5 69 20.8 96 96 Calm 29.85 1011 1 1.60934 0 0
9:15 am 09:15 Partly Cloudy 74 23.1 71 21.9 93 93 E 3 6 29.83 1010 10 16.0934 0 0
9:35 am 09:35 Sunny 75 24 71 21.4 85 85 Calm 29.82 1010 10 16.0934 0 0
9:55 am 09:55 Sunny 77 25 71 21.5 81 81 Calm 29.82 1010 10 16.0934 0 0
10:15 am 10:15 Sunny 78 25.7 72 22 80 80 Calm 29.8 1009 10 16.0934 0 0
10:35 am 10:35 Sunny 80 26.5 71 21.6 75 75 Calm 29.8 1009 10 16.0934 0 0
10:55 am 10:55 Sunny 82 27.5 71 21.4 69 69 SSE 3 6 29.78 1008 10 16.0934 0 0
11:15 am 11:15 Sunny 84 28.7 71 21.4 65 65 SSE 3 6 29.77 1008 10 16.0934 0 0
11:35 am 11:35 Sunny 85 29.3 71 21.6 63 63 SE 6 9 29.76 1008 10 16.0934 0 0
11:55 am 11:55 Sunny 86 30.2 71 21.5 60 60 SSE 8 13 29.75 1007 10 16.0934 0 0
12:15 pm 12:15 Sunny 87 30.5 71 21.7 59 59 SSE 9 15 29.74 1007 10 16.0934 0 0
12:35 pm 12:35 Sunny 89 31.5 72 22.3 58 58 SE 9 15 29.73 1007 10 16.0934 0 0
12:55 pm 12:55 Sunny 90 32.1 73 22.5 57 57 SSE 9 15 29.71 1006 10 16.0934 0 0
1:15 pm 13:15 Sunny 90 32.3 71 21.4 53 53 SSE 12 19 29.71 1006 10 16.0934 0 0
1:35 pm 13:35 Sunny 91 32.8 71 21.6 52 52 SSE 9 15 29.71 1006 10 16.0934 0 0
1:55 pm 13:55 Sunny 92 33.4 73 22.6 53 53 SSE 10 17 29.7 1006 10 16.0934 0 0
2:15 pm 14:15 Sunny 92 33.1 71 21.6 51 51 S 12 19 29.68 1005 10 16.0934 0 0
2:35 pm 14:35 Sunny 92 33.4 70 20.9 48 48 S 12 19 29.69 1005 10 16.0934 0 0
2:55 pm 14:55 Sunny 93 34 69 20.4 45 45 S 14 22 29.68 1005 10 16.0934 0 0
3:15 pm 15:15 Sunny 94 34.5 68 20.2 43 43 S 13 20 29.67 1005 10 16.0934 0 0
3:35 pm 15:35 Sunny 94 34.7 67 19.5 41 41 S 16 26 29.66 1004 10 16.0934 0 0
3:55 pm 15:55 Sunny 94 34.4 66 19 40 40 S 14 22 29.66 1005 10 16.0934 0 0
4:15 pm 16:15 Sunny 94 34.2 65 18.3 39 39 S 15 24 29.67 1005 10 16.0934 0 0
4:35 pm 16:35 Sunny 94 34.5 66 19 40 40 S 14 22 29.66 1005 10 16.0934 0 0
4:55 pm 16:55 Sunny 94 34.5 67 19.7 42 42 S 13 20 29.66 1005 10 16.0934 0 0
5:15 pm 17:15 Sunny 94 34.2 67 19.5 42 42 S 12 19 29.65 1004 10 16.0934 0 0
5:35 pm 17:35 Sunny 93 34.1 68 20 44 44 S 10 17 29.65 1004 10 16.0934 0 0
5:55 pm 17:55 Sunny 93 34 68 20 44 44 S 8 13 29.66 1004 10 16.0934 0 0
6:15 pm 18:15 Sunny 93 34 69 20.6 45 45 SSW 5 7 29.67 1005 10 16.0934 0 0
6:35 pm 18:35 Sunny 92 33.5 68 20.2 46 46 S 6 9 29.67 1005 10 16.0934 0 0
6:55 pm 18:55 Sunny 92 33.2 68 20.1 46 46 S 6 9 29.66 1005 10 16.0934 0 0
7:15 pm 19:15 Sunny 90 32.2 68 20 48 48 S 5 7 29.67 1005 10 16.0934 0 0
7:35 pm 19:35 Sunny 86 30.2 71 21.5 60 60 Calm 29.7 1006 10 16.0934 0 0
7:55 pm 19:55 Sunny 87 30.6 72 22.2 61 61 ESE 3 6 29.68 1005 10 16.0934 0 0
8:15 pm 20:15 Sunny 84 28.8 73 22.8 70 70 ESE 7 11 29.71 1006 10 16.0934 0 0
8:35 pm 20:35 Sunny 82 28 72 22.1 70 70 ESE 7 11 29.71 1006 10 16.0934 0 0
8:55 pm 20:55 Clear 80 26.6 72 22.1 76 76 E 7 11 29.72 1007 10 16.0934 0 0
9:15 pm 21:15 Clear 80 26.5 72 22.1 77 77 ESE 8 13 29.74 1007 10 16.0934 0 0
9:35 pm 21:35 Clear 78 25.8 72 22.2 81 81 ESE 7 11 29.74 1007 10 16.0934 0 0
9:55 pm 21:55 Hazy 78 25.8 72 22.1 80 80 E 8 13 29.74 1007 5 8.0467 0 0
10:15 pm 22:15 Clear 78 25.5 72 22.2 82 82 ESE 8 13 29.73 1007 10 16.0934 0 0
10:35 pm 22:35 Clear 77 25.2 72 22.1 83 83 SE 7 11 29.75 1007 10 16.0934 0 0
10:55 pm 22:55 Clear 78 25.7 71 21.7 79 79 SE 6 9 29.73 1007 10 16.0934 0 0
11:15 pm 23:15 Clear 78 25.3 71 21.5 80 80 SE 3 6 29.72 1007 10 16.0934 0 0
11:35 pm 23:35 Clear 78 25.3 70 21.3 79 79 Calm 29.73 1007 10 16.0934 0 0
11:55 pm 23:55 Clear 75 23.8 69 20.8 83 83 Calm 29.75 1007 10 16.0934 0 0

Powered by AerisWeather